Torna al catalogo

STARLINK-32726

AttivoComunicazioniVLEO
NORAD 62446·PAYLOAD·🇺🇸 United States

Lanciato Dec 29, 2024 da Vandenberg Space Force Base

Loading…

Prossimi Passaggi (prossime 24 ore)

TLE

AggiornatoSource: CelesTrak SupGP

Epoca: Sep 14, 2026, 21:18 UTC

1 62446C 24251Q   26257.88798611 -.00032883  00000+0 -97117-3 0  2576
2 62446  53.1575 173.7274 0001292  89.4921 304.3969 15.34418995    12

Traccia STARLINK-32726 in tempo reale con AllMySat

Download on the App Store